This is the latest recevied weather packets stored in our database for station/object DL9GJ-6. If no packets are shown the sender has not sent any weather packets the latest 10 day(s).
| Time | Temp. | Humidity | Pressure | Rain* | Wind** | Luminosity | Snow |
|---|---|---|---|---|---|---|---|
| 1778052727 | 13.33° C | 84% | 1005.8 hPa | 0 mm | - | 234 W/m² | - |
| 1778052380 | 13.33° C | 85% | 1005.9 hPa | 0 mm | - | 240 W/m² | - |
| 1778052020 | 12.78° C | 85% | 1006 hPa | 0 mm | - | 233 W/m² | - |
| 1778051660 | 12.78° C | 87% | 1006.1 hPa | 0 mm | - | 186 W/m² | - |
| 1778051301 | 12.78° C | 88% | 1006 hPa | 0 mm | - | 150 W/m² | - |
| 1778051291 | 12.78° C | 88% | 1006 hPa | 0 mm | - | 150 W/m² | - |
| 1778050941 | 12.78° C | 89% | 1006 hPa | 0 mm | - | 180 W/m² | - |
| 1778050581 | 12.22° C | 89% | 1006 hPa | 0 mm | - | 226 W/m² | - |
| 1778050222 | 12.22° C | 88% | 1005.9 hPa | 0 mm | - | 176 W/m² | - |
| 1778049860 | 12.22° C | 89% | 1005.9 hPa | 0 mm | - | 138 W/m² | - |
| 1778049854 | 12.22° C | 89% | 1005.9 hPa | 0 mm | - | 138 W/m² | - |
| 1778049501 | 12.22° C | 89% | 1005.8 hPa | 0 mm | - | 197 W/m² | - |
| 1778049140 | 11.67° C | 91% | 1005.8 hPa | 0 mm | - | 288 W/m² | - |
| 1778049130 | 11.67° C | 91% | 1005.8 hPa | 0 mm | - | 288 W/m² | - |
| 1778048781 | 11.67° C | 92% | 1005.7 hPa | 0 mm | - | 324 W/m² | - |
| 1778048421 | 11.67° C | 92% | 1005.8 hPa | 0 mm | - | 246 W/m² | - |
| 1778048407 | 11.67° C | 92% | 1005.8 hPa | 0 mm | - | 246 W/m² | - |
| 1778048060 | 11.11° C | 92% | 1006 hPa | 0 mm | - | 171 W/m² | - |
| 1778047701 | 11.11° C | 93% | 1006 hPa | 0 mm | - | 158 W/m² | - |
| 1778047340 | 10.56° C | 93% | 1006 hPa | 0 mm | - | 289 W/m² | - |
| 1778046981 | 10.56° C | 93% | 1006.1 hPa | 0 mm | - | 265 W/m² | - |
| 1778046621 | 10° C | 93% | 1006.1 hPa | 0 mm | - | 212 W/m² | - |
| 1778046261 | 9.44° C | 93% | 1005.9 hPa | 0 mm | - | 241 W/m² | - |
| 1778045902 | 8.89° C | 93% | 1005.9 hPa | 0 mm | - | 193 W/m² | - |
| 1778045542 | 8.89° C | 93% | 1005.9 hPa | 0 mm | - | 189 W/m² | - |
* Rain latest hour (hover to see other rain measurements)
** Current wind speed in m/s (hover to see current wind gust speed)